QPF
0.00 0.00 0.00 0.00 0.00 0.00 0.00 0.00 0.00 0.00 0.00 0.00 0.00 0.00 0.00 0.00 0.00 0.00 0.00 0.00 0.00 0.00 0.00 0.01 0.02 0.02 0.01 0.00 0.00 0.00 0.01 0.02 0.02 0.02 0.02 0.04 0.06 0.07 0.06 0.06 0.05 0.04 0.04 0.03
0.00 0.00 0.00 0.00 0.00 0.00 0.00 0.00 0.00 0.00 0.00 0.00 0.00 0.00 0.00 0.00 0.00 0.00 0.00 0.00 0.00 0.00 0.00 0.00 0.01 0.01 0.00 0.00 0.00 0.02 0.04 0.06 0.06 0.05 0.06 0.08 0.08 0.07 0.06 0.06 0.05 0.05 0.04 0.02
0.00 0.00 0.00 0.00 0.00 0.00 0.00 0.00 0.00 0.00 0.00 0.00 0.00 0.00 0.00 0.00 0.00 0.00 0.00 0.00 0.00 0.00 0.00 0.00 0.00 0.00 0.01 0.01 0.01 0.03 0.08 0.10 0.09 0.07 0.07 0.07 0.06 0.06 0.07 0.07 0.07 0.07 0.05 0.03
0.00 0.00 0.00 0.00 0.00 0.00 0.00 0.00 0.00 0.00 0.00 0.00 0.00 0.00 0.00 0.00 0.00 0.00 0.00 0.00 0.00 0.00 0.00 0.00 0.00 0.00 0.00 0.01 0.02 0.05 0.09 0.12 0.12 0.10 0.09 0.08 0.07 0.08 0.09 0.09 0.08 0.07 0.05 0.04
0.00 0.00 0.00 0.00 0.00 0.00 0.00 0.00 0.00 0.00 0.00 0.00 0.00 0.00 0.00 0.00 0.00 0.00 0.00 0.00 0.00 0.00 0.00 0.00 0.00 0.01 0.01 0.01 0.03 0.04 0.08 0.12 0.15 0.15 0.16 0.14 0.13 0.15 0.16 0.12 0.11 0.11 0.11 0.08
0.00 0.00 0.00 0.00 0.00 0.00 0.00 0.00 0.00 0.00 0.00 0.00 0.00 0.00 0.00 0.00 0.00 0.00 0.00 0.00 0.00 0.00 0.01 0.01 0.01 0.01 0.01 0.02 0.03 0.05 0.07 0.11 0.14 0.16 0.20 0.21 0.21 0.21 0.19 0.17 0.15 0.11 0.08 0.04
0.00 0.00 0.00 0.00 0.00 0.00 0.00 0.00 0.00 0.00 0.00 0.00 0.00 0.00 0.01 0.01 0.00 0.00 0.00 0.01 0.01 0.01 0.01 0.01 0.01 0.01 0.02 0.02 0.03 0.04 0.05 0.08 0.12 0.16 0.20 0.23 0.23 0.22 0.17 0.13 0.10 0.07 0.04 0.03
0.00 0.00 0.00 0.00 0.00 0.00 0.00 0.00 0.00 0.00 0.00 0.00 0.00 0.01 0.02 0.01 0.00 0.00 0.00 0.00 0.01 0.01 0.01 0.01 0.02 0.02 0.02 0.03 0.04 0.04 0.04 0.06 0.09 0.12 0.17 0.18 0.17 0.16 0.13 0.11 0.09 0.06 0.04 0.02
0.00 0.00 0.00 0.00 0.00 0.00 0.00 0.00 0.00 0.00 0.00 0.00 0.00 0.02 0.04 0.01 0.01 0.00 0.00 0.00 0.01 0.01 0.01 0.02 0.02 0.02 0.02 0.03 0.03 0.04 0.04 0.05 0.06 0.08 0.09 0.10 0.10 0.09 0.07 0.06 0.05 0.03 0.02 0.01
0.00 0.00 0.00 0.00 0.00 0.00 0.00 0.00 0.00 0.00 0.00 0.00 0.00 0.01 0.03 0.04 0.03 0.02 0.01 0.01 0.01 0.01 0.01 0.02 0.02 0.02 0.03 0.03 0.04 0.04 0.04 0.04 0.05 0.05 0.04 0.04 0.04 0.03 0.02 0.02 0.01 0.01 0.01 0.00
0.00 0.00 0.00 0.00 0.00 0.00 0.00 0.00 0.00 0.00 0.00 0.00 0.00 0.03 0.04 0.07 0.08 0.07 0.04 0.01 0.01 0.01 0.01 0.01 0.01 0.02 0.03 0.03 0.03 0.03 0.03 0.03 0.03 0.02 0.02 0.01 0.01 0.01 0.00 0.00 0.00 0.00 0.00 0.00
0.00 0.00 0.00 0.00 0.00 0.00 0.00 0.00 0.00 0.00 0.00 0.00 0.00 0.05 0.04 0.10 0.17 0.14 0.07 0.02 0.01 0.01 0.01 0.01 0.01 0.02 0.02 0.01 0.01 0.01 0.01 0.01 0.01 0.01 0.01 0.01 0.01 0.00 0.00 0.00 0.00 0.00 0.00 0.00
0.00 0.00 0.01 0.01 0.01 0.00 0.00 0.00 0.00 0.00 0.00 0.00 0.01 0.09 0.10 0.17 0.21 0.16 0.08 0.04 0.03 0.02 0.02 0.02 0.02 0.02 0.01 0.01 0.01 0.01 0.01 0.01 0.01 0.01 0.01 0.01 0.01 0.00 0.00 0.00 0.00 0.00 0.00 0.00
0.00 0.00 0.01 0.06 0.06 0.02 0.01 0.01 0.00 0.00 0.01 0.02 0.03 0.11 0.15 0.20 0.23 0.20 0.16 0.11 0.07 0.04 0.02 0.02 0.02 0.01 0.01 0.01 0.01 0.01 0.01 0.01 0.01 0.01 0.01 0.01 0.01 0.01 0.01 0.00 0.00 0.00 0.00 0.00
0.00 0.00 0.00 0.01 0.01 0.01 0.01 0.01 0.01 0.01 0.01 0.01 0.04 0.13 0.21 0.26 0.28 0.26 0.25 0.20 0.13 0.07 0.05 0.03 0.03 0.02 0.01 0.01 0.01 0.01 0.01 0.01 0.01 0.01 0.01 0.01 0.01 0.00 0.00 0.00 0.00 0.00 0.00 0.00
0.00 0.00 0.00 0.00 0.00 0.00 0.01 0.01 0.01 0.02 0.02 0.01 0.05 0.16 0.23 0.30 0.36 0.33 0.26 0.21 0.17 0.13 0.11 0.09 0.08 0.06 0.05 0.05 0.04 0.03 0.03 0.02 0.01 0.01 0.01 0.01 0.00 0.00 0.00 0.00 0.01 0.01 0.01 0.01
0.00 0.00 0.00 0.00 0.00 0.00 0.02 0.02 0.01 0.02 0.03 0.03 0.08 0.18 0.20 0.19 0.24 0.28 0.28 0.25 0.23 0.22 0.20 0.17 0.15 0.13 0.12 0.10 0.09 0.07 0.06 0.04 0.03 0.02 0.01 0.00 0.00 0.00 0.00 0.00 0.01 0.01 0.01 0.01
0.00 0.00 0.00 0.00 0.01 0.03 0.06 0.02 0.02 0.03 0.04 0.04 0.08 0.13 0.15 0.14 0.14 0.16 0.18 0.21 0.24 0.23 0.23 0.21 0.19 0.16 0.13 0.11 0.08 0.06 0.04 0.02 0.01 0.00 0.00 0.00 0.00 0.01 0.01 0.01 0.00 0.00 0.00 0.01
0.00 0.00 0.01 0.01 0.02 0.06 0.11 0.05 0.01 0.05 0.09 0.08 0.09 0.09 0.09 0.10 0.09 0.11 0.14 0.15 0.16 0.16 0.16 0.14 0.12 0.09 0.07 0.05 0.03 0.02 0.01 0.01 0.00 0.00 0.00 0.00 0.01 0.01 0.01 0.00 0.00 0.01 0.01 0.01
0.00 0.00 0.02 0.04 0.06 0.10 0.13 0.05 0.01 0.05 0.14 0.13 0.13 0.12 0.14 0.15 0.13 0.09 0.08 0.09 0.10 0.09 0.08 0.07 0.05 0.04 0.03 0.02 0.01 0.01 0.01 0.01 0.01 0.01 0.01 0.01 0.01 0.01 0.01 0.01 0.01 0.01 0.01 0.01
0.00 0.01 0.03 0.05 0.08 0.12 0.04 0.01 0.02 0.09 0.16 0.18 0.18 0.19 0.19 0.17 0.13 0.10 0.08 0.07 0.06 0.04 0.03 0.03 0.02 0.02 0.01 0.01 0.01 0.01 0.01 0.02 0.01 0.01 0.01 0.02 0.01 0.01 0.01 0.01 0.01 0.01 0.01 0.02
0.01 0.03 0.04 0.06 0.09 0.11 0.03 0.01 0.05 0.10 0.14 0.15 0.14 0.12 0.08 0.05 0.03 0.03 0.03 0.03 0.02 0.02 0.02 0.02 0.02 0.02 0.02 0.02 0.03 0.03 0.02 0.02 0.01 0.01 0.02 0.02 0.02 0.00 0.01 0.02 0.02 0.02 0.03 0.03
0.01 0.02 0.04 0.06 0.08 0.07 0.04 0.04 0.06 0.09 0.11 0.11 0.09 0.06 0.03 0.01 0.01 0.01 0.01 0.01 0.01 0.01 0.02 0.02 0.02 0.02 0.03 0.03 0.04 0.03 0.03 0.01 0.02 0.03 0.02 0.02 0.01 0.00 0.01 0.02 0.02 0.03 0.03 0.03
0.00 0.00 0.02 0.05 0.07 0.04 0.04 0.04 0.05 0.06 0.07 0.06 0.04 0.03 0.02 0.01 0.01 0.01 0.01 0.01 0.01 0.02 0.02 0.02 0.02 0.03 0.03 0.03 0.02 0.03 0.02 0.02 0.04 0.05 0.04 0.02 0.02 0.01 0.01 0.01 0.01 0.02 0.03 0.02
0.00 0.01 0.02 0.05 0.08 0.08 0.07 0.04 0.04 0.04 0.04 0.04 0.03 0.02 0.01 0.01 0.01 0.01 0.01 0.02 0.02 0.02 0.02 0.02 0.02 0.02 0.01 0.01 0.01 0.01 0.01 0.02 0.05 0.06 0.05 0.03 0.01 0.01 0.01 0.02 0.01 0.01 0.01 0.00
0.00 0.01 0.03 0.07 0.09 0.09 0.09 0.05 0.03 0.04 0.03 0.03 0.02 0.01 0.01 0.01 0.01 0.01 0.02 0.02 0.01 0.01 0.01 0.01 0.00 0.00 0.00 0.00 0.01 0.01 0.01 0.01 0.02 0.04 0.04 0.03 0.01 0.01 0.02 0.03 0.04 0.01 0.00 0.00
MSLP
1008.88 1008.98 1008.85 1008.54 1008.15 1007.78 1007.49 1007.32 1007.24 1007.18 1007.07 1006.84 1006.44 1005.88 1005.22 1004.54 1003.95 1003.54 1003.38 1003.46 1003.75 1004.17 1004.64 1005.06 1005.40 1005.63 1005.79 1005.96 1006.19 1006.56 1007.12 1007.87 1008.76 1009.74 1010.71 1011.62 1012.40 1013.04 1013.54 1013.94 1014.28 1014.61 1014.96 1015.34
1009.10 1009.10 1008.88 1008.51 1008.10 1007.75 1007.50 1007.38 1007.34 1007.30 1007.19 1006.93 1006.50 1005.91 1005.25 1004.62 1004.14 1003.88 1003.90 1004.19 1004.67 1005.26 1005.83 1006.28 1006.57 1006.68 1006.67 1006.63 1006.65 1006.84 1007.26 1007.91 1008.77 1009.76 1010.79 1011.77 1012.64 1013.36 1013.93 1014.38 1014.78 1015.14 1015.52 1015.93
1009.05 1008.96 1008.69 1008.32 1007.95 1007.67 1007.51 1007.48 1007.51 1007.52 1007.42 1007.15 1006.70 1006.11 1005.48 1004.92 1004.55 1004.47 1004.69 1005.20 1005.89 1006.65 1007.33 1007.82 1008.06 1008.07 1007.89 1007.64 1007.46 1007.44 1007.69 1008.22 1009.00 1009.97 1011.01 1012.04 1012.97 1013.75 1014.39 1014.90 1015.34 1015.76 1016.17 1016.61
1008.73 1008.58 1008.29 1007.96 1007.68 1007.52 1007.51 1007.60 1007.74 1007.81 1007.75 1007.50 1007.06 1006.49 1005.90 1005.42 1005.19 1005.28 1005.70 1006.41 1007.30 1008.22 1009.01 1009.54 1009.76 1009.67 1009.35 1008.92 1008.54 1008.34 1008.42 1008.81 1009.50 1010.41 1011.43 1012.47 1013.43 1014.26 1014.94 1015.50 1015.98 1016.42 1016.87 1017.32
1008.21 1008.03 1007.76 1007.51 1007.35 1007.34 1007.48 1007.72 1007.97 1008.14 1008.14 1007.92 1007.52 1006.99 1006.47 1006.09 1005.99 1006.23 1006.83 1007.72 1008.77 1009.82 1010.69 1011.26 1011.46 1011.31 1010.88 1010.33 1009.79 1009.44 1009.38 1009.65 1010.24 1011.08 1012.06 1013.08 1014.04 1014.88 1015.58 1016.16 1016.65 1017.11 1017.56 1018.01
1007.64 1007.44 1007.21 1007.04 1007.00 1007.14 1007.42 1007.80 1008.17 1008.43 1008.50 1008.34 1008.00 1007.54 1007.10 1006.83 1006.85 1007.22 1007.96 1008.98 1010.14 1011.27 1012.20 1012.80 1013.00 1012.81 1012.33 1011.70 1011.08 1010.64 1010.48 1010.67 1011.18 1011.95 1012.87 1013.85 1014.78 1015.59 1016.27 1016.84 1017.32 1017.76 1018.18 1018.61
1007.15 1006.94 1006.75 1006.66 1006.72 1006.96 1007.35 1007.82 1008.28 1008.61 1008.75 1008.67 1008.40 1008.03 1007.69 1007.53 1007.66 1008.15 1008.97 1010.06 1011.28 1012.45 1013.41 1014.01 1014.22 1014.03 1013.55 1012.91 1012.28 1011.81 1011.62 1011.77 1012.22 1012.94 1013.80 1014.72 1015.59 1016.35 1016.99 1017.50 1017.93 1018.32 1018.70 1019.08
1006.88 1006.67 1006.50 1006.45 1006.55 1006.84 1007.27 1007.78 1008.27 1008.64 1008.83 1008.82 1008.64 1008.38 1008.16 1008.12 1008.35 1008.91 1009.80 1010.91 1012.13 1013.29 1014.23 1014.83 1015.05 1014.89 1014.45 1013.87 1013.30 1012.87 1012.72 1012.87 1013.31 1013.98 1014.79 1015.63 1016.43 1017.11 1017.66 1018.10 1018.46 1018.77 1019.09 1019.41
1006.90 1006.68 1006.51 1006.45 1006.55 1006.81 1007.21 1007.68 1008.15 1008.52 1008.74 1008.79 1008.71 1008.57 1008.48 1008.56 1008.89 1009.51 1010.42 1011.52 1012.70 1013.80 1014.70 1015.28 1015.51 1015.41 1015.06 1014.58 1014.12 1013.80 1013.73 1013.93 1014.38 1015.02 1015.78 1016.54 1017.25 1017.83 1018.28 1018.62 1018.88 1019.11 1019.35 1019.60
1007.20 1006.98 1006.79 1006.69 1006.71 1006.89 1007.18 1007.56 1007.94 1008.27 1008.49 1008.60 1008.62 1008.62 1008.67 1008.88 1009.31 1009.98 1010.89 1011.95 1013.05 1014.08 1014.92 1015.47 1015.71 1015.68 1015.44 1015.11 1014.80 1014.63 1014.67 1014.94 1015.42 1016.05 1016.74 1017.42 1018.02 1018.49 1018.83 1019.07 1019.24 1019.38 1019.54 1019.74
1007.71 1007.49 1007.28 1007.11 1007.04 1007.08 1007.23 1007.46 1007.73 1007.99 1008.20 1008.36 1008.49 1008.62 1008.82 1009.17 1009.70 1010.43 1011.32 1012.32 1013.34 1014.28 1015.04 1015.56 1015.82 1015.87 1015.76 1015.58 1015.45 1015.43 1015.60 1015.95 1016.45 1017.06 1017.69 1018.27 1018.76 1019.11 1019.34 1019.48 1019.57 1019.65 1019.76 1019.92
1008.33 1008.13 1007.89 1007.66 1007.49 1007.39 1007.38 1007.46 1007.60 1007.78 1007.98 1008.19 1008.42 1008.70 1009.06 1009.55 1010.18 1010.95 1011.83 1012.78 1013.71 1014.55 1015.23 1015.72 1016.01 1016.13 1016.14 1016.13 1016.16 1016.29 1016.57 1016.98 1017.50 1018.07 1018.63 1019.11 1019.48 1019.73 1019.86 1019.91 1019.94 1019.97 1020.06 1020.20
1008.94 1008.78 1008.55 1008.28 1008.02 1007.80 1007.66 1007.60 1007.64 1007.76 1007.95 1008.22 1008.55 1008.97 1009.48 1010.10 1010.82 1011.64 1012.52 1013.41 1014.25 1015.01 1015.62 1016.08 1016.39 1016.58 1016.70 1016.83 1017.00 1017.26 1017.62 1018.08 1018.59 1019.10 1019.57 1019.94 1020.20 1020.34 1020.39 1020.39 1020.37 1020.39 1020.48 1020.64
1009.48 1009.38 1009.18 1008.91 1008.62 1008.33 1008.10 1007.95 1007.91 1007.99 1008.20 1008.52 1008.96 1009.50 1010.15 1010.88 1011.69 1012.54 1013.41 1014.25 1015.02 1015.69 1016.24 1016.67 1017.00 1017.25 1017.47 1017.70 1017.98 1018.33 1018.74 1019.21 1019.68 1020.12 1020.49 1020.75 1020.91 1020.96 1020.95 1020.91 1020.88 1020.91 1021.02 1021.20
1009.90 1009.89 1009.76 1009.54 1009.26 1008.96 1008.69 1008.51 1008.44 1008.52 1008.75 1009.13 1009.66 1010.31 1011.07 1011.90 1012.77 1013.64 1014.49 1015.27 1015.97 1016.57 1017.07 1017.47 1017.81 1018.10 1018.38 1018.69 1019.04 1019.44 1019.87 1020.31 1020.72 1021.07 1021.34 1021.50 1021.57 1021.56 1021.50 1021.44 1021.42 1021.47 1021.61 1021.83
1010.24 1010.32 1010.29 1010.15 1009.93 1009.68 1009.44 1009.27 1009.22 1009.32 1009.59 1010.03 1010.63 1011.36 1012.19 1013.08 1013.98 1014.86 1015.67 1016.40 1017.03 1017.57 1018.01 1018.38 1018.71 1019.02 1019.35 1019.70 1020.08 1020.49 1020.90 1021.30 1021.64 1021.90 1022.07 1022.14 1022.13 1022.07 1021.99 1021.93 1021.92 1022.00 1022.17 1022.41
1010.52 1010.70 1010.78 1010.76 1010.64 1010.47 1010.29 1010.18 1010.17 1010.31 1010.63 1011.12 1011.77 1012.56 1013.43 1014.34 1015.24 1016.09 1016.86 1017.53 1018.09 1018.56 1018.94 1019.28 1019.59 1019.90 1020.23 1020.59 1020.98 1021.37 1021.75 1022.09 1022.35 1022.54 1022.62 1022.62 1022.56 1022.46 1022.37 1022.31 1022.33 1022.43 1022.61 1022.87
1010.81 1011.09 1011.27 1011.36 1011.35 1011.28 1011.19 1011.15 1011.21 1011.40 1011.76 1012.29 1012.97 1013.77 1014.65 1015.55 1016.43 1017.24 1017.95 1018.55 1019.04 1019.44 1019.77 1020.05 1020.33 1020.62 1020.94 1021.29 1021.65 1022.01 1022.34 1022.62 1022.82 1022.94 1022.97 1022.92 1022.82 1022.71 1022.62 1022.57 1022.60 1022.71 1022.89 1023.14
1011.15 1011.49 1011.76 1011.94 1012.03 1012.06 1012.06 1012.10 1012.21 1012.46 1012.85 1013.40 1014.10 1014.90 1015.76 1016.63 1017.47 1018.22 1018.87 1019.40 1019.82 1020.15 1020.41 1020.65 1020.88 1021.14 1021.42 1021.74 1022.06 1022.38 1022.67 1022.90 1023.05 1023.12 1023.12 1023.05 1022.94 1022.83 1022.74 1022.71 1022.74 1022.85 1023.02 1023.23
1011.53 1011.91 1012.23 1012.48 1012.64 1012.75 1012.82 1012.92 1013.10 1013.38 1013.80 1014.37 1015.06 1015.84 1016.68 1017.52 1018.30 1019.00 1019.59 1020.05 1020.41 1020.67 1020.88 1021.06 1021.25 1021.45 1021.69 1021.96 1022.25 1022.53 1022.77 1022.97 1023.09 1023.15 1023.13 1023.07 1022.97 1022.87 1022.80 1022.77 1022.80 1022.89 1023.03 1023.22
1011.94 1012.32 1012.66 1012.94 1013.15 1013.30 1013.43 1013.58 1013.79 1014.10 1014.55 1015.12 1015.80 1016.57 1017.38 1018.18 1018.93 1019.58 1020.12 1020.53 1020.83 1021.05 1021.20 1021.33 1021.46 1021.62 1021.81 1022.04 1022.28 1022.52 1022.74 1022.91 1023.03 1023.08 1023.08 1023.04 1022.96 1022.89 1022.83 1022.81 1022.84 1022.91 1023.03 1023.17
1012.32 1012.69 1013.02 1013.30 1013.52 1013.70 1013.85 1014.03 1014.27 1014.61 1015.07 1015.65 1016.33 1017.09 1017.88 1018.66 1019.37 1019.99 1020.49 1020.87 1021.13 1021.31 1021.42 1021.51 1021.59 1021.71 1021.85 1022.03 1022.24 1022.45 1022.64 1022.81 1022.93 1023.00 1023.02 1023.01 1022.97 1022.92 1022.89 1022.88 1022.90 1022.96 1023.05 1023.17
1012.64 1012.97 1013.27 1013.54 1013.75 1013.93 1014.11 1014.31 1014.57 1014.93 1015.40 1015.99 1016.67 1017.43 1018.21 1018.97 1019.67 1020.27 1020.75 1021.11 1021.36 1021.50 1021.59 1021.65 1021.70 1021.77 1021.88 1022.02 1022.19 1022.38 1022.56 1022.72 1022.85 1022.94 1022.99 1023.01 1023.00 1022.98 1022.97 1022.98 1023.00 1023.06 1023.14 1023.24
1012.86 1013.15 1013.42 1013.66 1013.86 1014.05 1014.23 1014.46 1014.74 1015.13 1015.61 1016.21 1016.90 1017.65 1018.42 1019.18 1019.87 1020.46 1020.94 1021.29 1021.53 1021.67 1021.74 1021.78 1021.81 1021.85 1021.93 1022.04 1022.18 1022.34 1022.50 1022.66 1022.80 1022.90 1022.98 1023.02 1023.04 1023.05 1023.06 1023.08 1023.12 1023.18 1023.26 1023.37
1012.98 1013.23 1013.47 1013.70 1013.90 1014.10 1014.30 1014.55 1014.86 1015.27 1015.78 1016.38 1017.08 1017.82 1018.59 1019.33 1020.01 1020.60 1021.07 1021.43 1021.67 1021.81 1021.88 1021.91 1021.93 1021.95 1022.00 1022.09 1022.20 1022.33 1022.48 1022.62 1022.75 1022.85 1022.94 1022.99 1023.03 1023.06 1023.09 1023.13 1023.18 1023.26 1023.37 1023.50
1013.00 1013.23 1013.47 1013.70 1013.92 1014.14 1014.38 1014.66 1015.02 1015.45 1015.97 1016.58 1017.26 1018.00 1018.74 1019.47 1020.13 1020.70 1021.17 1021.53 1021.77 1021.92 1022.00 1022.03 1022.05 1022.06 1022.09 1022.15 1022.23 1022.33 1022.44 1022.56 1022.66 1022.75 1022.82 1022.88 1022.92 1022.96 1023.01 1023.06 1023.15 1023.26 1023.40 1023.56
Thickness
5714 5711 5714 5728 5740 5747 5757 5764 5771 5786 5804 5790 5784 5790 5804 5821 5824 5822 5823 5825 5827 5826 5829 5830 5828 5827 5826 5822 5816 5809 5801 5794 5787 5778 5771 5764 5758 5754 5749 5744 5739 5734 5728 5724
5702 5705 5726 5741 5749 5749 5749 5751 5766 5787 5801 5787 5780 5784 5801 5812 5816 5817 5816 5815 5813 5811 5809 5811 5812 5814 5814 5812 5810 5804 5797 5789 5782 5774 5767 5760 5753 5747 5742 5736 5730 5725 5720 5715
5697 5717 5733 5735 5740 5739 5741 5744 5757 5769 5782 5783 5771 5767 5783 5799 5810 5811 5810 5803 5797 5792 5790 5793 5796 5798 5799 5799 5801 5798 5791 5783 5776 5768 5760 5752 5744 5737 5730 5725 5719 5714 5710 5705
5703 5721 5729 5728 5731 5736 5730 5750 5755 5759 5757 5756 5763 5746 5773 5788 5791 5793 5788 5783 5777 5776 5775 5775 5775 5777 5780 5784 5790 5789 5782 5775 5767 5760 5752 5744 5735 5726 5721 5715 5709 5703 5698 5693
5705 5718 5720 5721 5731 5738 5736 5754 5753 5751 5745 5744 5756 5748 5769 5791 5779 5774 5767 5762 5761 5759 5758 5756 5756 5758 5762 5767 5771 5772 5768 5761 5755 5749 5742 5734 5726 5718 5711 5704 5697 5690 5685 5681
5716 5729 5728 5728 5738 5743 5743 5742 5743 5743 5738 5721 5742 5743 5755 5779 5776 5760 5747 5746 5745 5743 5740 5738 5738 5740 5742 5746 5749 5750 5747 5742 5738 5733 5728 5721 5714 5706 5698 5691 5684 5678 5672 5667
5704 5719 5731 5735 5727 5734 5733 5718 5706 5707 5711 5722 5752 5747 5751 5766 5767 5751 5738 5732 5729 5726 5723 5720 5720 5721 5722 5725 5726 5727 5726 5722 5719 5716 5710 5705 5699 5693 5685 5678 5672 5666 5659 5654
5693 5700 5723 5730 5724 5721 5724 5719 5703 5702 5716 5736 5756 5748 5744 5750 5747 5739 5731 5722 5715 5710 5707 5704 5703 5703 5704 5706 5708 5708 5707 5703 5701 5698 5693 5689 5684 5678 5671 5665 5658 5652 5646 5641
5698 5703 5731 5736 5737 5731 5721 5721 5732 5722 5723 5723 5742 5733 5722 5732 5727 5723 5716 5708 5700 5694 5691 5689 5688 5688 5689 5690 5690 5690 5689 5686 5684 5680 5676 5672 5667 5661 5655 5649 5644 5638 5632 5627
5705 5700 5722 5732 5736 5735 5735 5731 5723 5712 5699 5702 5727 5730 5723 5717 5713 5708 5700 5692 5684 5680 5677 5675 5674 5674 5674 5674 5674 5674 5673 5671 5668 5664 5661 5656 5650 5646 5641 5635 5629 5624 5618 5614
5708 5695 5708 5722 5718 5719 5724 5723 5721 5720 5720 5707 5707 5716 5733 5718 5707 5695 5685 5678 5672 5669 5666 5664 5663 5662 5662 5661 5661 5659 5657 5655 5651 5648 5644 5640 5635 5630 5625 5620 5614 5609 5604 5600
5702 5695 5692 5709 5729 5737 5731 5725 5720 5703 5704 5714 5711 5704 5728 5716 5701 5685 5672 5666 5661 5658 5656 5654 5652 5651 5650 5648 5647 5645 5642 5639 5635 5632 5627 5623 5618 5613 5608 5603 5598 5593 5589 5585
5689 5684 5676 5687 5698 5710 5710 5716 5717 5716 5709 5702 5697 5687 5703 5696 5681 5670 5660 5653 5649 5645 5643 5641 5639 5638 5636 5634 5631 5629 5626 5623 5619 5614 5609 5604 5599 5595 5590 5585 5581 5576 5572 5568
5685 5679 5670 5655 5659 5673 5682 5694 5700 5698 5692 5690 5690 5678 5678 5672 5662 5652 5644 5637 5634 5631 5629 5626 5624 5622 5619 5617 5614 5611 5607 5604 5600 5595 5590 5585 5580 5576 5571 5567 5563 5559 5555 5551
5682 5674 5678 5677 5679 5678 5680 5685 5689 5685 5685 5684 5679 5671 5663 5657 5649 5639 5631 5624 5619 5615 5613 5610 5607 5604 5601 5597 5594 5591 5587 5584 5580 5575 5570 5565 5561 5557 5553 5549 5545 5541 5538 5535
5676 5667 5672 5674 5684 5684 5683 5685 5683 5678 5677 5677 5669 5651 5649 5643 5635 5625 5618 5612 5605 5600 5597 5593 5589 5586 5582 5578 5574 5571 5567 5563 5560 5555 5551 5546 5543 5540 5536 5532 5527 5524 5520 5516
5666 5661 5658 5661 5677 5677 5663 5662 5665 5660 5660 5661 5648 5636 5632 5623 5615 5608 5602 5598 5593 5587 5582 5576 5572 5568 5564 5560 5556 5553 5549 5545 5541 5537 5533 5529 5526 5523 5520 5516 5511 5507 5503 5499
5654 5652 5652 5656 5658 5639 5640 5656 5657 5650 5642 5641 5631 5620 5612 5603 5595 5591 5588 5583 5577 5574 5568 5564 5559 5554 5550 5546 5543 5539 5534 5530 5526 5522 5518 5515 5512 5508 5504 5499 5495 5490 5486 5483
5657 5646 5643 5645 5643 5633 5629 5635 5637 5635 5619 5620 5612 5603 5596 5589 5582 5572 5569 5568 5564 5559 5555 5551 5547 5543 5539 5534 5530 5526 5522 5517 5513 5509 5505 5502 5498 5493 5488 5483 5478 5474 5471 5467
5656 5649 5637 5634 5623 5611 5610 5628 5638 5630 5601 5604 5601 5593 5589 5586 5574 5560 5557 5555 5551 5547 5544 5540 5537 5532 5527 5522 5518 5514 5510 5505 5501 5497 5492 5488 5483 5477 5472 5467 5463 5460 5456 5452
5639 5638 5631 5624 5614 5605 5614 5628 5632 5604 5587 5592 5591 5585 5582 5576 5567 5554 5548 5544 5540 5537 5533 5530 5526 5521 5516 5511 5507 5502 5499 5494 5489 5484 5479 5474 5469 5464 5459 5453 5449 5446 5443 5439
5627 5623 5619 5614 5603 5591 5610 5614 5600 5589 5591 5587 5582 5576 5569 5561 5552 5545 5539 5535 5531 5527 5524 5520 5516 5511 5506 5502 5498 5493 5488 5483 5478 5472 5466 5461 5456 5452 5447 5441 5437 5434 5431 5429
5626 5618 5613 5605 5595 5598 5602 5598 5595 5592 5585 5579 5573 5566 5560 5552 5544 5537 5532 5527 5523 5520 5515 5511 5508 5502 5498 5493 5488 5483 5477 5472 5467 5460 5454 5449 5444 5440 5435 5431 5427 5424 5421 5419
5627 5623 5613 5602 5596 5597 5596 5593 5589 5586 5579 5574 5567 5560 5553 5545 5538 5531 5525 5520 5516 5512 5509 5505 5501 5495 5490 5485 5480 5474 5469 5463 5457 5450 5444 5439 5434 5429 5425 5421 5419 5416 5412 5409
5619 5616 5608 5598 5593 5590 5587 5585 5581 5577 5573 5566 5560 5554 5546 5539 5531 5525 5519 5514 5510 5507 5503 5499 5494 5488 5483 5479 5473 5468 5462 5456 5449 5442 5436 5431 5426 5422 5418 5414 5408 5406 5400 5397
5618 5608 5598 5587 5587 5582 5576 5578 5575 5569 5563 5558 5552 5545 5538 5532 5525 5519 5514 5510 5505 5501 5497 5492 5488 5483 5478 5473 5467 5461 5456 5450 5442 5436 5430 5425 5420 5416 5414 5410 5404 5397 5395 5391